Estación de Chanco INIA

Ultimos registro cada 15 minutos 55
Estación Fecha / Hora Temperatura Humedad Lluvia Velocidad Dirección Radiación Presion
55 Chanco INIA 03-05-2026 13:30 16,8 38 0 0 0 284 1004
54 Chanco INIA 03-05-2026 13:15 17,1 36,6 0 0 0 329 1004
53 Chanco INIA 03-05-2026 13:00 17,1 33,4 0 0 0 322 1004
52 Chanco INIA 03-05-2026 12:45 16,8 32,1 0 0,1 254 356 1004
51 Chanco INIA 03-05-2026 12:30 16,6 35,3 0 0 0 279 1004
50 Chanco INIA 03-05-2026 12:15 16,3 34,6 0 0 0 235 1004
49 Chanco INIA 03-05-2026 12:00 16 37,9 0 0 0 325 1004
48 Chanco INIA 03-05-2026 11:45 16 41,1 0 0 0 282 1004
47 Chanco INIA 03-05-2026 11:30 16,2 38,3 0 0 0 257 1004
46 Chanco INIA 03-05-2026 11:15 15,8 34,3 0 0 0 345 1004
45 Chanco INIA 03-05-2026 11:00 15,5 40,9 0 0 0 214 1004
44 Chanco INIA 03-05-2026 10:45 15,8 46 0 0 0 380 1004
43 Chanco INIA 03-05-2026 10:30 13,8 54 0 0 0 354 1004
42 Chanco INIA 03-05-2026 10:15 13,3 59,2 0 0 0 181 1004
41 Chanco INIA 03-05-2026 10:00 14,9 58,4 0 0 0 209 1004
40 Chanco INIA 03-05-2026 09:45 16 51,6 0 0 0 304 1003
39 Chanco INIA 03-05-2026 09:30 15,5 49,7 0 0 0 256 1004
38 Chanco INIA 03-05-2026 09:15 13 52 0 0 0 283 1004
37 Chanco INIA 03-05-2026 09:00 10,9 60 0 0 0 172 1004
36 Chanco INIA 03-05-2026 08:45 8,7 73,1 0 0 0 162 1004
35 Chanco INIA 03-05-2026 08:30 8 76,6 0 0 0 83 1003
34 Chanco INIA 03-05-2026 08:15 7 73,9 0 0 0 106 1004
33 Chanco INIA 03-05-2026 08:00 5,5 81,6 0 0 0 56 1003
32 Chanco INIA 03-05-2026 07:45 5,5 83,8 0 0 0 15 1004
31 Chanco INIA 03-05-2026 07:30 6 81,8 0 0 0 5 1003
30 Chanco INIA 03-05-2026 07:15 5,2 84,4 0 0 0 0 1003
29 Chanco INIA 03-05-2026 07:00 4,7 85,7 0 0 0 0 1003
28 Chanco INIA 03-05-2026 06:45 5 82,7 0 0 0 0 1003
27 Chanco INIA 03-05-2026 06:30 4,5 84,8 0 0 0 0 1003
26 Chanco INIA 03-05-2026 06:15 4,8 82 0 0 0 0 1003
25 Chanco INIA 03-05-2026 06:00 5,7 76,9 0 0 0 0 1003
24 Chanco INIA 03-05-2026 05:45 5 81 0 0 0 0 1003
23 Chanco INIA 03-05-2026 05:30 5,6 79,3 0 0 0 0 1003
22 Chanco INIA 03-05-2026 05:15 6,4 76,1 0 0 0 0 1003
21 Chanco INIA 03-05-2026 05:00 5,6 81,5 0 0 0 0 1002
20 Chanco INIA 03-05-2026 04:45 5,1 85 0 0 0 0 1002
19 Chanco INIA 03-05-2026 04:30 4,6 88 0 0 35 0 1002
18 Chanco INIA 03-05-2026 04:15 4,5 88 0 0 57 0 1003
17 Chanco INIA 03-05-2026 04:00 4,8 88 0 0 0 0 1003
16 Chanco INIA 03-05-2026 03:45 4,7 88,1 0 0 0 0 1003
15 Chanco INIA 03-05-2026 03:30 4,7 88,3 0 0 0 0 1003
14 Chanco INIA 03-05-2026 03:15 5 87,6 0 0 0 0 1004
13 Chanco INIA 03-05-2026 03:00 5,3 86 0 0 0 0 1003
12 Chanco INIA 03-05-2026 02:45 5,7 84,1 0 0 0 0 1003
11 Chanco INIA 03-05-2026 02:30 6,8 80,1 0 0 0 0 1003
10 Chanco INIA 03-05-2026 02:15 6,1 83,9 0 0,3 88 0 1003
9 Chanco INIA 03-05-2026 02:00 6,3 84,8 0 0 0 0 1004
8 Chanco INIA 03-05-2026 01:45 6,3 88,3 0 0 0 0 1003
7 Chanco INIA 03-05-2026 01:30 5,6 91,6 0 0 0 0 1003
6 Chanco INIA 03-05-2026 01:15 5,7 90,5 0 0 0 0 1003
5 Chanco INIA 03-05-2026 01:00 5,9 91,2 0 0 0 0 1003
4 Chanco INIA 03-05-2026 00:45 5,5 91,8 0 0 0 0 1004
3 Chanco INIA 03-05-2026 00:30 5,6 91,2 0 0 0 0 1004
2 Chanco INIA 03-05-2026 00:15 6,2 90,4 0 0 0 0 1004
1 Chanco INIA 03-05-2026 00:00 5,7 91,5 0 0 0 0 1004